Flag for Brazil Weather past 2 weeks in Fernando de Noronha, Pernambuco, Brazil

Now
81 °F

Scattered clouds.


Feels Like: 84 °F
Forecast: 77 / 79 °F
Wind: 13 mph from Southeast

Location: Fernando De Noronha

Current Time: Sep 19, 2014 at 5:59:32 PM

Latest Report: Sep 19, 2014 at 5:00 PM


Visibility: N/A

Pressure: 29.95 "Hg

Humidity: 70%

Dew point: 70 °F

Location of Fernando de NoronhaLocation

Historic Weather in Fernando de Noronha — Graph

°F

Fernando de Noronha temperature yesterday

Maximum temperature yesterday: 86 °F (at 11:00 AM)
Minimum temperature yesterday: 77 °F (at 6:00 AM)
Average temperature yesterday: 82 °F

Past Weeks' High & Low Weather Summary

 TemperatureHumidityPressure
High86 °F (Sep 7, 12:00 PM)94% (Sep 11, 2:00 PM)30.04 "Hg (Sep 11, 2:00 PM)
Low75 °F (Sep 7, 6:00 AM)55% (Sep 8, 11:00 AM)29.89 "Hg (Sep 10, 5:00 PM)
Average81 °F69%29.97 "Hg
* Reported Sep 4 5:00 PM — Sep 19 5:00 PM, Fernando de Noronha, Weather by CustomWeather, © 2014

Note: Actual official high and low records may vary slightly from our data, if they occured in-between our weather recording intervals... More about our weather records

Advertising

Fernando de Noronha weather history for previous 24 hours

 ConditionsComfort  
Time TempWeatherWind HumidityBarometerVisibility
5:00 PM
Sep 19
81 °FScattered clouds.13 mph70%29.95 "HgN/A
4:00 PM81 °FScattered clouds.16 mph66%29.95 "HgN/A
3:00 PM84 °FScattered clouds.13 mph58%29.92 "HgN/A
2:00 PM86 °FScattered clouds.14 mph55%29.95 "HgN/A
1:00 PM84 °FScattered clouds.16 mph58%29.95 "HgN/A
12:00 PM84 °FScattered clouds.16 mph62%29.98 "HgN/A
11:00 AM84 °FScattered clouds.16 mph58%30.01 "HgN/A
10:00 AM84 °FPartly sunny.16 mph62%30.01 "HgN/A
9:00 AM82 °FScattered clouds.14 mph66%30.01 "HgN/A
8:00 AM81 °FScattered clouds.14 mph70%29.98 "HgN/A
7:00 AM79 °FScattered clouds.14 mph70%29.98 "HgN/A
6:00 AM77 °FScattered clouds.15 mph74%29.95 "HgN/A
8:00 PM
Sep 18
79 °FPassing clouds.15 mph74%29.95 "HgN/A
7:00 PM77 °FPassing clouds.13 mph79%29.95 "HgN/A
6:00 PM79 °FSunny.12 mph74%29.95 "Hg10 mi
5:00 PM81 °FPassing clouds.14 mph70%29.92 "HgN/A
Weather by CustomWeather, © 2014

See weather overviewHow to use our weather pages